| time (UTC) | temp F | wind direction | speed MPH | gust MPH | rain 1hr in | rain 24hr in | rain mn in | humidity % | barometer mb |
| 20260506203958 | 61 | 0 | 0.0 | 0.0 | 0.00 | 1.02 | 1.02 | 77 | 1011.2 |
| 20260506202959 | 61 | 0 | 0.0 | 0.0 | 0.00 | 1.02 | 1.02 | 78 | 1011.2 |
| 20260506201959 | 61 | 210 | 0.0 | 3.0 | 0.00 | 1.02 | 1.02 | 78 | 1011.1 |
| 20260506200958 | 61 | 89 | 0.0 | 4.0 | 0.00 | 1.02 | 1.02 | 78 | 1011.1 |
| 20260506200008 | 61 | 0 | 1.0 | 0.0 | 0.00 | 1.02 | 1.02 | 78 | 1010.9 |
| 20260506194959 | 62 | 0 | 1.0 | 0.0 | 0.00 | 1.02 | 1.02 | 78 | 1010.7 |
| 20260506193959 | 62 | 163 | 3.0 | 5.0 | 0.00 | 1.02 | 1.02 | 78 | 1010.5 |
| 20260506193002 | 62 | 168 | 6.0 | 11.0 | 0.00 | 1.02 | 1.02 | 78 | 1010.5 |
| 20260506191958 | 62 | 168 | 2.0 | 10.0 | 0.00 | 1.02 | 1.02 | 79 | 1010.3 |
| 20260506185959 | 62 | 208 | 2.0 | 1.0 | 0.00 | 1.02 | 1.02 | 80 | 1010.0 |
| 20260506184000 | 62 | 139 | 2.0 | 5.0 | 0.00 | 1.02 | 1.02 | 79 | 1009.8 |
| 20260506183000 | 62 | 170 | 3.0 | 16.0 | 0.00 | 1.02 | 1.02 | 79 | 1009.7 |
| 20260506182005 | 62 | 158 | 1.0 | 2.0 | 0.00 | 1.02 | 1.02 | 79 | 1009.6 |
| 20260506180003 | 62 | 98 | 2.0 | 4.0 | 0.00 | 1.02 | 1.02 | 78 | 1009.3 |
| 20260506174959 | 62 | 122 | 2.0 | 9.0 | 0.00 | 1.02 | 1.02 | 78 | 1009.2 |
| 20260506173002 | 62 | 158 | 2.0 | 7.0 | 0.00 | 1.02 | 1.02 | 78 | 1009.3 |
| 20260506171000 | 62 | 185 | 3.0 | 8.0 | 0.00 | 1.02 | 1.02 | 79 | 1009.1 |
| 20260506165959 | 62 | 147 | 3.0 | 7.0 | 0.00 | 1.02 | 1.02 | 78 | 1009.1 |
| 20260506162958 | 63 | 216 | 0.0 | 1.0 | 0.00 | 1.02 | 1.02 | 78 | 1009.1 |
| 20260506162008 | 63 | 149 | 2.0 | 3.0 | 0.00 | 1.02 | 1.02 | 78 | 1009.0 |
| 20260506160003 | 63 | 236 | 3.0 | 11.0 | 0.00 | 1.02 | 1.02 | 77 | 1008.9 |
| 20260506155006 | 64 | 139 | 3.0 | 12.0 | 0.00 | 1.02 | 1.02 | 76 | 1008.9 |
| 20260506154007 | 64 | 188 | 7.0 | 7.0 | 0.00 | 1.02 | 1.02 | 77 | 1008.8 |
| 20260506151959 | 65 | 164 | 2.0 | 8.0 | 0.00 | 1.02 | 1.02 | 76 | 1008.6 |
| 20260506151002 | 65 | 222 | 5.0 | 9.0 | 0.00 | 1.02 | 1.02 | 75 | 1008.8 |
| 20260506150017 | 65 | 195 | 3.0 | 5.0 | 0.00 | 1.02 | 1.02 | 76 | 1008.8 |
| 20260506145021 | 65 | 214 | 2.0 | 5.0 | 0.00 | 1.02 | 1.02 | 75 | 1008.7 |
| 20260506144018 | 65 | 117 | 4.0 | 4.0 | 0.00 | 1.02 | 1.02 | 76 | 1008.7 |
| 20260506140959 | 66 | 203 | 6.0 | 9.0 | 0.00 | 1.02 | 1.02 | 74 | 1008.7 |
| 20260506140001 | 65 | 207 | 6.0 | 9.0 | 0.00 | 1.02 | 1.02 | 74 | 1008.6 |
| 20260506134959 | 65 | 225 | 8.0 | 14.0 | 0.00 | 1.02 | 1.02 | 73 | 1008.8 |
| 20260506133000 | 65 | 205 | 7.0 | 9.0 | 0.00 | 1.02 | 1.02 | 73 | 1008.9 |
| 20260506132000 | 65 | 197 | 7.0 | 17.0 | 0.00 | 1.02 | 1.02 | 76 | 1008.9 |
| 20260506131008 | 65 | 229 | 5.0 | 17.0 | 0.00 | 1.02 | 1.02 | 77 | 1008.8 |
| 20260506124959 | 65 | 206 | 5.0 | 16.0 | 0.00 | 1.02 | 1.02 | 77 | 1008.7 |
| 20260506124000 | 65 | 187 | 3.0 | 11.0 | 0.00 | 1.02 | 1.02 | 79 | 1008.7 |
| 20260506122959 | 65 | 222 | 2.0 | 6.0 | 0.00 | 1.02 | 1.02 | 80 | 1008.7 |
| 20260506120000 | 64 | 189 | 4.0 | 15.0 | 0.00 | 1.02 | 1.02 | 82 | 1008.6 |
| 20260506114959 | 64 | 197 | 4.0 | 12.0 | 0.00 | 1.02 | 1.02 | 82 | 1008.6 |
| 20260506113959 | 64 | 218 | 4.0 | 13.0 | 0.00 | 1.02 | 1.02 | 81 | 1008.6 |
| 20260506112959 | 64 | 170 | 4.0 | 11.0 | 0.00 | 1.02 | 1.02 | 83 | 1008.5 |
| 20260506112005 | 64 | 200 | 3.0 | 11.0 | 0.00 | 1.02 | 1.02 | 82 | 1008.6 |
| 20260506110959 | 64 | 231 | 2.0 | 1.0 | 0.00 | 1.02 | 1.02 | 83 | 1008.6 |
| 20260506110001 | 64 | 225 | 5.0 | 13.0 | 0.00 | 1.02 | 1.02 | 82 | 1008.6 |
| 20260506102013 | 65 | 188 | 1.0 | 6.0 | 0.00 | 1.02 | 1.02 | 82 | 1008.6 |
| 20260506101000 | 64 | 236 | 1.0 | 5.0 | 0.00 | 1.02 | 1.02 | 83 | 1008.6 |
| 20260506100003 | 64 | 210 | 1.0 | 12.0 | 0.00 | 1.02 | 1.02 | 83 | 1008.7 |
| 20260506094959 | 64 | 0 | 0.0 | 0.0 | 0.00 | 1.02 | 1.02 | 83 | 1008.6 |
| 20260506094002 | 64 | 218 | 1.0 | 1.0 | 0.00 | 1.03 | 1.02 | 83 | 1008.6 |
| 20260506093000 | 64 | 154 | 1.0 | 9.0 | 0.00 | 1.03 | 1.02 | 83 | 1008.6 |
| 20260506091959 | 63 | 202 | 1.0 | 4.0 | 0.00 | 1.03 | 1.02 | 82 | 1008.4 |
| 20260506090003 | 63 | 202 | 2.0 | 7.0 | 0.00 | 1.03 | 1.02 | 83 | 1008.3 |
| 20260506084002 | 62 | 239 | 1.0 | 8.0 | 0.00 | 1.03 | 1.02 | 87 | 1008.0 |
| 20260506082959 | 62 | 216 | 2.0 | 5.0 | 0.00 | 1.03 | 1.02 | 88 | 1008.0 |
| 20260506082000 | 62 | 189 | 3.0 | 10.0 | 0.00 | 1.03 | 1.02 | 89 | 1007.9 |
| 20260506081000 | 62 | 184 | 5.0 | 7.0 | 0.00 | 1.03 | 1.02 | 89 | 1007.7 |
| 20260506072000 | 62 | 206 | 7.0 | 21.0 | 0.15 | 1.03 | 1.02 | 91 | 1007.2 |
| 20260506071007 | 62 | 203 | 5.0 | 21.0 | 0.15 | 1.03 | 1.02 | 91 | 1007.2 |
| 20260506061959 | 61 | 168 | 3.0 | 14.0 | 0.00 | 0.91 | 0.87 | 87 | 1007.0 |
| 20260506061003 | 60 | 102 | 2.0 | 9.0 | 0.00 | 0.95 | 0.87 | 89 | 1007.1 |
| 20260506051001 | 57 | 0 | 0.0 | 0.0 | 0.06 | 1.25 | 0.87 | 92 | 1007.5 |
| 20260506044000 | 56 | 0 | 0.0 | 0.0 | 0.07 | 1.35 | 0.86 | 93 | 1007.6 |
| 20260506043000 | 56 | 0 | 0.0 | 0.0 | 0.07 | 1.41 | 0.86 | 92 | 1007.7 |
| 20260506042000 | 56 | 0 | 0.0 | 0.0 | 0.07 | 1.48 | 0.86 | 92 | 1007.9 |
| 20260506041001 | 56 | 0 | 0.0 | 0.0 | 0.02 | 1.47 | 0.80 | 91 | 1008.5 |
| 20260506040000 | 56 | 0 | 0.0 | 0.0 | 0.01 | 1.59 | 0.80 | 90 | 1008.5 |
| 20260506035000 | 56 | 0 | 0.0 | 0.0 | 0.01 | 1.62 | 0.79 | 90 | 1008.3 |
| 20260506034001 | 57 | 351 | 0.0 | 1.0 | 0.02 | 1.65 | 0.79 | 90 | 1008.1 |
| 20260506033000 | 56 | 0 | 1.0 | 0.0 | 0.02 | 1.68 | 0.79 | 90 | 1008.3 |
| 20260506031000 | 56 | 0 | 0.0 | 0.0 | 0.03 | 1.76 | 0.79 | 91 | 1008.3 |
| 20260506030001 | 56 | 0 | 0.0 | 0.0 | 0.06 | 1.78 | 0.79 | 92 | 1008.4 |
| 20260506025000 | 56 | 0 | 0.0 | 0.0 | 0.09 | 1.79 | 0.78 | 92 | 1008.9 |
| 20260506024000 | 56 | 0 | 0.0 | 0.0 | 0.14 | 1.79 | 0.77 | 92 | 1009.2 |
| 20260506023000 | 56 | 0 | 0.0 | 0.0 | 0.29 | 1.81 | 0.77 | 92 | 1009.2 |
| 20260506022001 | 56 | 0 | 0.0 | 0.0 | 0.47 | 1.82 | 0.76 | 92 | 1009.3 |
| 20260506021000 | 56 | 0 | 0.0 | 0.0 | 0.51 | 1.83 | 0.76 | 91 | 1009.3 |
| 20260506020001 | 56 | 0 | 0.0 | 0.0 | 0.50 | 1.80 | 0.72 | 91 | 1009.4 |
| 20260506015002 | 57 | 0 | 0.0 | 0.0 | 0.47 | 1.78 | 0.69 | 91 | 1009.9 |
| 20260506014000 | 58 | 0 | 0.0 | 0.0 | 0.43 | 1.73 | 0.62 | 90 | 1010.2 |
| 20260506013000 | 58 | 0 | 0.0 | 0.0 | 0.30 | 1.61 | 0.48 | 92 | 1010.3 |
| 20260506012000 | 59 | 259 | 0.0 | 2.0 | 0.11 | 1.42 | 0.28 | 92 | 1009.7 |
| 20260506005001 | 58 | 0 | 0.0 | 0.0 | 0.06 | 1.37 | 0.20 | 94 | 1009.7 |
| 20260506004002 | 58 | 0 | 0.0 | 0.0 | 0.04 | 1.35 | 0.19 | 93 | 1009.7 |
| 20260506003000 | 58 | 0 | 0.0 | 0.0 | 0.03 | 1.35 | 0.18 | 93 | 1009.8 |
| 20260506001959 | 58 | 0 | 0.0 | 0.0 | 0.02 | 1.34 | 0.17 | 93 | 1009.6 |
| 20260506001000 | 58 | 0 | 0.0 | 0.0 | 0.00 | 1.31 | 0.15 | 93 | 1009.7 |
| 20260506000000 | 59 | 0 | 0.0 | 0.0 | 0.00 | 1.31 | 0.15 | 92 | 1009.9 |
| 20260505235005 | 59 | 0 | 0.0 | 0.0 | 0.00 | 1.31 | 0.15 | 92 | 1010.0 |
| 20260505234001 | 59 | 0 | 0.0 | 0.0 | 0.00 | 1.31 | 0.15 | 92 | 1010.5 |
| 20260505233002 | 59 | 0 | 0.0 | 0.0 | 0.01 | 1.31 | 0.15 | 92 | 1010.5 |
| 20260505232001 | 59 | 0 | 0.0 | 0.0 | 0.14 | 1.31 | 0.15 | 91 | 1010.8 |
| 20260505230000 | 59 | 0 | 0.0 | 0.0 | 0.15 | 1.31 | 0.15 | 92 | 1010.9 |
| 20260505224000 | 59 | 0 | 0.0 | 0.0 | 0.15 | 1.31 | 0.15 | 91 | 1011.1 |
| 20260505223001 | 60 | 0 | 0.0 | 0.0 | 0.14 | 1.31 | 0.14 | 89 | 1011.1 |
| 20260505221000 | 60 | 352 | 0.0 | 3.0 | 0.00 | 1.17 | 0.00 | 88 | 1011.3 |
| 20260505220005 | 60 | 0 | 0.0 | 0.0 | 0.00 | 1.17 | 0.00 | 87 | 1011.1 |
| 20260505215001 | 60 | 0 | 0.0 | 0.0 | 0.00 | 1.17 | 1.17 | 88 | 1011.3 |
| 20260505212014 | 60 | 0 | 0.0 | 0.0 | 0.00 | 1.17 | 1.17 | 88 | 1011.5 |
| 20260505211000 | 60 | 0 | 0.0 | 0.0 | 0.00 | 1.17 | 1.17 | 88 | 1011.6 |
| 20260505210000 | 60 | 0 | 0.0 | 0.0 | 0.00 | 1.17 | 1.17 | 88 | 1011.8 |
| 20260505205000 | 60 | 0 | 0.0 | 0.0 | 0.00 | 1.17 | 1.17 | 87 | 1011.8 |